TimeAKDT,TemperatureF,Dew PointF,Humidity,Sea Level PressureIn,VisibilityMPH,Wind Direction,Wind SpeedMPH,Gust SpeedMPH,PrecipitationIn,Events,Conditions,WindDirDegrees,DateUTC
12:53 AM,46.0,37.9,73,29.56,10.0,ENE,16.1,25.3,0.00,Rain,Light Rain,70,2012-10-04 08:53:00
1:53 AM,46.0,37.9,73,29.53,10.0,ENE,19.6,28.8,0.00,,Overcast,70,2012-10-04 09:53:00
2:29 AM,46.4,39.2,76,29.52,10.0,ENE,24.2,28.8,0.00,Rain,Light Rain,70,2012-10-04 10:29:00
2:53 AM,46.0,39.0,76,29.51,10.0,ENE,24.2,32.2,0.00,Rain,Light Rain,70,2012-10-04 10:53:00
3:53 AM,44.1,41.0,89,29.48,5.0,East,20.7,28.8,0.00,Rain,Light Rain,80,2012-10-04 11:53:00
4:51 AM,42.8,42.8,100,29.44,4.0,East,20.7,27.6,0.04,Rain,Light Rain,80,2012-10-04 12:51:00
4:53 AM,43.0,42.1,97,29.45,4.0,East,20.7,27.6,0.04,Rain,Light Rain,80,2012-10-04 12:53:00
5:32 AM,42.8,42.8,100,29.43,3.0,East,23.0,28.8,0.01,Rain,Light Rain,80,2012-10-04 13:32:00
5:41 AM,42.8,42.8,100,29.44,2.5,East,20.7,26.5,0.02,Rain,Light Rain,80,2012-10-04 13:41:00
5:51 AM,42.8,42.8,100,29.43,3.0,East,19.6,29.9,0.03,Rain,Rain,90,2012-10-04 13:51:00
5:53 AM,43.0,42.1,97,29.43,3.0,East,19.6,27.6,0.03,Rain,Rain,90,2012-10-04 13:53:00
6:24 AM,42.8,42.8,100,29.43,7.0,East,19.6,28.8,0.03,Rain,Light Rain,80,2012-10-04 14:24:00
6:43 AM,42.8,42.8,100,29.42,7.0,East,18.4,27.6,0.03,Rain,Light Rain,90,2012-10-04 14:43:00
6:53 AM,44.1,43.0,96,29.42,7.0,East,19.6,27.6,0.04,Rain,Light Rain,90,2012-10-04 14:53:00
7:53 AM,44.1,43.0,96,29.42,7.0,East,17.3,26.5,0.02,Rain,Light Rain,90,2012-10-04 15:53:00
8:49 AM,44.6,42.8,93,29.41,10.0,East,18.4,-,0.00,,Overcast,90,2012-10-04 16:49:00
8:53 AM,45.0,43.0,93,29.41,10.0,East,18.4,-,0.00,,Overcast,90,2012-10-04 16:53:00
9:42 AM,44.6,42.8,93,29.41,10.0,East,18.4,24.2,0.00,Rain,Light Rain,90,2012-10-04 17:42:00
9:53 AM,45.0,43.0,93,29.41,10.0,East,15.0,-,0.01,Rain,Light Rain,90,2012-10-04 17:53:00
10:53 AM,46.0,44.1,93,29.42,10.0,ESE,18.4,-,0.01,Rain,Light Rain,110,2012-10-04 18:53:00
11:32 AM,46.4,44.6,93,29.43,8.0,ESE,19.6,25.3,0.02,Rain,Light Rain,120,2012-10-04 19:32:00
11:53 AM,45.0,44.1,97,29.43,10.0,ESE,18.4,25.3,0.02,Rain,Light Rain,110,2012-10-04 19:53:00
12:53 PM,44.1,42.1,93,29.47,10.0,SE,18.4,-,0.00,,Overcast,140,2012-10-04 20:53:00
1:30 PM,42.8,39.2,87,29.49,10.0,SE,11.5,-,N/A,,Overcast,130,2012-10-04 21:30:00
1:53 PM,44.1,41.0,89,29.50,10.0,ESE,13.8,-,N/A,,Overcast,120,2012-10-04 21:53:00
2:53 PM,45.0,39.9,82,29.50,10.0,ESE,15.0,-,N/A,,Partly Cloudy,120,2012-10-04 22:53:00
3:53 PM,45.0,39.9,82,29.52,10.0,ESE,15.0,-,N/A,,Scattered Clouds,120,2012-10-04 23:53:00
4:53 PM,45.0,41.0,86,29.52,10.0,ESE,17.3,26.5,N/A,,Overcast,110,2012-10-05 00:53:00
5:53 PM,45.0,39.9,82,29.52,10.0,ESE,17.3,-,N/A,,Overcast,110,2012-10-05 01:53:00
6:53 PM,45.0,39.9,82,29.50,10.0,ESE,21.9,33.4,0.00,Rain,Light Rain,110,2012-10-05 02:53:00
7:53 PM,43.0,37.9,82,29.50,10.0,ESE,15.0,-,0.00,,Mostly Cloudy,110,2012-10-05 03:53:00
8:53 PM,43.0,39.0,86,29.50,10.0,ESE,19.6,29.9,N/A,,Overcast,110,2012-10-05 04:53:00
9:53 PM,43.0,37.9,82,29.51,10.0,ESE,24.2,31.1,N/A,,Mostly Cloudy,120,2012-10-05 05:53:00
10:53 PM,43.0,37.9,82,29.51,10.0,ESE,23.0,31.1,N/A,,Mostly Cloudy,120,2012-10-05 06:53:00
11:53 PM,43.0,37.9,82,29.51,10.0,ESE,25.3,33.4,N/A,,Overcast,110,2012-10-05 07:53:00